Back to race calendar - Race photos

Spenborough 20, Yorkshire

14th March 2010

Results courtesy of Chris Drake
(This is a sortable table - click column heading)
Filter (choose one only!)
Surname:
Cat: Club:
PosNumForenameSurnameCatClubTime
166PumlaniBanganiMSalford1:57:10
2156TimMidgleyMBingley1:58:08
3240JulianMawsonMOtley1:59:26
4291DominicRabyMChorley2:02:18
5151AndyMayMAbbey2:02:24
6148DuncanClarkM45Abbey2:04:11
781RobinTuddenhamM40Serpentine2:05:26
8343ColinGellMSale2:05:39
9224ScottHarringtonMOtley2:06:24
10230DavidThompsonMBarnsley2:07:45
11117KevinOgdenMSpenborough2:08:36
12109AndrewDobbyMHarrogate2:09:06
13233ColinRobsonMJarrow2:10:15
14348SusanPartridgeFLeeds City2:11:03
1517KevinLanganM45Knavesmire2:11:10
16338JamieWestwoodM40Stadium2:11:28
17295KeithThomasM50Burnden2:11:37
18152RobinOwenMAbbey2:12:14
19104MartinHallM45Dewsbury2:12:57
20155PaulFordhamM40Barnsley2:13:03
21279SteveRoebuckMPenistone2:13:27
22130JonathanSinclairM45Ilkley2:15:24
23280PaulArcherM45Clayton2:15:29
24212LeeSmithMBarnsley2:16:15
2552PaulMcGoughMN. Yorks Moors2:16:31
2670JohnBroomMHolmfirth2:16:35
27120DaveMotleyMClayton2:16:42
2855DavidWalshM45Redhill2:16:51
29164JackHollandMAbbey2:17:16
30185GilesHarrisMGoole2:17:17
31184CraigDeaconMJarrow2:17:33
3211BridgetCoomberF45Denby Dale2:17:51
33159MartynHewittMKippax2:19:00
3489AndreaDennisonF45Bingley2:19:13
35124LyndonBiltonMU/A2:19:20
36296IanSandersonMValley Striders2:19:26
37286AndrewGuiseleyMDewsbury2:19:38
3857RussellParkinsonM45Knavesmire2:19:54
3992JohnSmith-CalvertM40Dewsbury2:20:07
40100KevinDaviesM45Clayton2:20:08
41141MickBrearleyM45St. Bedes2:20:11
428LloydBestM45Otley2:20:13
43255SallyMalirF45Ilkley2:21:30
44119AlexisBradburyMDewsbury2:22:07
45193GaryLunnM45U/A2:22:24
46267DawnBroomF45Holmfirth2:22:37
47204PhilMcGeeverM45Horsforth2:23:10
48145MarkHutchesonM45Keighley2:23:11
49168AndyToddM45Nidd Valley2:23:18
50223IanKitchingM45Abbey2:23:41
51329Mary-AnneTracey-AgueaFAstley & Tyldsley2:23:53
5273RichardJonesMGarstang2:24:01
5362MarkHarneyM45York Acorn2:24:11
54258JasonHensonMU/A2:24:16
55268AndrewWebsterM40Abbey Runners2:24:17
5661PeterBrownM50Steel City2:24:46
57299AndrewBeardsleyM45Meltham2:25:05
58294GerardSkippinsMSpenborough2:25:20
59173AlekKaragicM45Horsforth2:26:00
60260MichaelMattisonM45Kippax2:26:03
6187KieronMitchellMClayton2:26:37
62225MalcolmCollinsM40Astley & Tyldsley2:26:39
6314Ian RobertsonMSelby2:27:10
64201SteveRabyM45U/A2:27:34
65288PeterHilliardM45Idle2:28:04
66285NormanLitvinM40U/A2:28:19
67287LeonWinderMIdle2:28:43
6841NeilJohnsonMBarnsley2:28:45
69241JonnyMcleanMU/A2:28:49
70282IanDavieMU/A2:28:49
7175RobynOldhamF35Knavesmire2:28:51
72327ScottDalyMU/A2:29:16
73276GilesByworthM40Scunthorpe2:29:31
74138DarrenMcAvinueMStadium2:29:42
75341JulieFieldF35Stainland2:29:45
76129ChristineMcCarthyF45Pontefract2:29:54
77125FayeBanksFPontefract2:29:54
78257ClaireElenerFEccleshill2:30:28
7993KevinLewisM40Bridlington2:30:51
80142ZaheirBashirMU/A2:30:57
81256AndrewHudsonMSt. Bedes2:31:12
82150GaryPlattM50Chorley2:31:19
83126LouiseRuddF35Wilmslow2:31:54
84340LenCurtisMU/A2:32:03
85107DavidMillerM40Stadium2:32:06
86177Steve FrithM55Penistone2:32:13
8745MarkNolanM40Woodkirk2:33:18
88328RichardAistonM45Dewsbury2:33:22
89113ColinRathboneM65Vale Royal2:33:42
9043AdrianMasseyM45U/A2:34:21
91197DavidDartonM50Knavesmire2:34:37
92101AndrewByramMU/A2:34:32
9322AlexMarsaudMU/A2:34:45
94136LeeGreenwoodMU/A2:34:57
95248AndrewTravisMBaildon2:35:00
9619SimonRichardsonM55Pocklington2:35:18
976JulieMastermanF45Goole2:35:50
9836SharonHagueF40Pudsey Pacers2:35:56
9972GarryKeenanM40Wetherby2:35:59
100147MartinQuinnMChorley2:36:10
101232MichaelEdgeM45Wesham2:36:14
102246LeanneHagueF35Kippax2:36:19
103169GaryHeyworthM40Garstang2:36:33
104263ColinEarlM45Bannatynes2:36:36
105161TimParkinsonMU/A2:36:44
10633AlisonThorntonF45Pocklington2:36:46
107290Nicola RabyF35Chorley2:36:53
108334TonyBrayshawM45Idle2:37:44
10991LynneHaynesF40Scunthorpe2:37:50
11026DavidCardaniM40Nidd Valley2:37:59
111190RobinCloughM40Barnsley2:39:11
112210MikePullonM50Pocklington2:39:40
113325CraigOrrM45Wakefield2:39:47
114345DeanDransfieldM40U/A2:39:57
115132JonathanCartwrightM40Stadium2:40:18
116332StephenParkerM40UK Net2:40:20
117200TimAppleyardM40Horsforth2:41:21
1182DavidBroadbentM50U/A2:41:22
119216MichaelTinkerMU/A2:41:26
120174StephenYoungMPreston2:41:56
121175StephenMortMPreston2:41:56
122273Tom TempleM55Salford2:42:16
123187JohnFouldsM50U/A2:43:10
124153DarrenManningsM40Oldham & Royston2:43:24
125133AndrewHeysMU/A2:43:33
126226MarisolCarrera VivaraF40Bingley2:43:35
127283DavidSternMKimberworth2:43:56
128274AndySmithMU/A2:44:07
129244PaulSmithMU/A2:44:08
130209LucyThompsonFStainland2:44:10
131300MelSykesFMeltham2:44:12
132170SimonRudsdaleMHorsforth2:44:55
13388NeilKinghamM40Knavesmire2:45:03
13486SimonDrewMKnavesmire2:45:04
135259DavidTiptonM40U/A2:46:06
136215EllieMayFStainland2:46:30
137297GaryBurnsM40Horsforth Fellandale2:47:00
138237HayleyLomasFMeltham2:47:04
139180AlexSimonM40Penistone2:47:07
140349CarlHarrisonMLeeds University2:47:10
1414AlanByeM65Skyrac2:47:19
142195SamanthaCowenFManx2:47:38
143135JonathanTinkerMU/A2:47:42
14446GrahamParkM45Quakers2:47:50
14556HelenCalderF35Steel City2:48:45
146252AndyPinkneyMU/A2:49:01
14742James BarlowMU/A2:49:08
148214DavidHewittM55Steel City2:49:14
149196ColinLeaM40Knavesmire2:49:21
15037JoanneBelcherF35U/A2:49:28
15120MickLunnM40Meltham2:49:29
152272AlanSchofieldM45Barnsley2:49:39
153194SusanSunderlandF45Valley Striders2:49:45
15474JaynePerryFLancs & Morecambe2:49:48
155231CarmelSullivanF40Wesham2:50:14
15627DominicBrownMU/A2:50:15
157111WandaMacDonaldF45Crossgates2:50:29
158275NigelShepherdM50Wesham2:50:42
159163DuncanSykesM40RRC2:51:15
160331DavidEslerM45U/A2:51:24
161220IanSutcliffeM40Dewsbury2:51:41
162253EmilyLawrenceFPudsey Pacers2:51:55
163211EmmaVincentFHalifax2:52:10
16463RoyYoungM60Ackworth2:52:36
165324StevenHemmingwayM50Spenborough2:52:38
166115StevenJacksonM45Preston2:52:55
167144PaulCarrMDenby Dale2:53:24
168239StephenGangulyM50U/A2:53:35
169108JohnBrownM60U/A2:53:48
170112JulieSmithF45Crossgates2:53:56
171218ChristopherNewmanMDoncaster2:54:18
172337NeilO'BrienM55Otley2:54:24
173116JerryFisherM40Barnsley2:54:49
174122MatthewRoseMHolmfirth2:55:15
175254SarahCallaghanF35Bingley2:55:27
176134MichaelChildeM50Roberttown2:56:01
17778JulieRidehalghF40Blackburn2:56:04
178157DamienPearsonMBaildon2:56:11
179219PhilHammondM45Abbey2:56:43
180339JimGoddardM45Baildon2:56:46
181118JonathanYatesMChapel Allerton2:56:48
18276RavindBhangalMStadium2:57:08
18349PatsyFenelonF60Goole2:57:23
184154RaymondMcCarthyM40Halifax2:57:34
185284EdwardWilkinsonM50Spenborough2:57:37
186326SteveWoodM55Horsforth2:57:56
187140PaulJacksonM40Chorley2:57:59
188281JohnCottamM50Stadium2:58:17
18923JennyCooperFPudsey Pacers2:58:58
190293MarkZurekMU/A2:59:05
191128MartinCoatesMHorsforth2:59:18
192221FionaSutcliffeF35Dewsbury2:59:33
193191OliverDugdaleMU/A3:00:00
19494James VickersMU/A3:00:13
195198TimJohnsonMU/A3:01:03
19697JackieCarterF45Spenborough3:01:05
197213PamelaGoldthorpeF40Pudsey Pacers3:01:17
198217Stephen HallMU/A3:01:47
19965Gerry OrchardM50York Acorn3:02:01
20044AdeleShipleyF40Pocklington3:03:21
201235SarahPhelanF35Penistone3:03:22
202242FionaHeadleyF45Selby3:03:46
20310SallyCampbellF35Denby Dale3:03:52
204330RobertGaylorM50U/A3:03:55
20584MironAprahamianM55Sale3:04:00
206270MartinSturdyM50Meltham3:04:04
207172NickHoyMU/A3:04:42
208127SarahRobertsF40Darwen3:05:13
209335BevCoatesF35U/A3:05:45
210123EddyLittleM40Preston3:05:57
211131PaulSadlerMClowne3:06:29
212292LeeInghamM45U/A3:06:36
21359AndrewPeagramMU/A3:06:43
21485MatthewHickMU/A3:06:56
21518ChrisMasonM45U/A3:06:58
216162PaulWoodsM45U/A3:07:14
217277LisaOldfieldFMeltham3:07:15
21864JulieBushellF40York Acorn3:07:22
21971JoeSpackmanMU/A3:07:30
220234JackieHetheringtonF35Penistone3:07:37
221336LucyWalshFU/A3:08:07
2223SusanBroadbentF50U/A3:08:47
223269ChrisJohnsonM60East Cheshire3:08:48
224178MarkAthertonMU/A3:08:55
22595DavidBastowMHartshead3:09:11
226106SteveClarkeMValley Hill3:09:13
227171JimMetaM50U/A3:09:15
228189MikeHarveyM40Goole3:09:45
229139HelenSwallowF40St. Theresas3:10:22
230188PhilBishopM40U/A3:11:13
23121SueViceryF45Pocklington3:11:13
232346DonSteadM70Pudsey Pacers3:12:51
23347PatrickHouriganM40U/A3:12:54
234261HazelPikeF40Spenborough3:13:11
23583NormaSmithF60Blackburn3:13:13
236333ElizabethBottomleyF45Spenborough3:13:36
237207MozRenderMYork Postal3:14:16
23860GillLoganF40Stadium3:16:31
23938AngelaAllumF40Meltham3:16:31
240110MoiraLeneghanF70Crossgates3:16:43
24153JanetWoodF45Sweat Equity3:19:39
242149RuthBaileyF40Wakefield3:20:39
243206ChristianJacksonMCrossgates3:22:28
244179AudreyGrestyF50Sale3:23:04
245137RobertSmithMStadium3:23:31
246186GregParkinM40U/A3:26:37
247289ChrisReedMU/A3:26:37
24848JohnWillcoxM45U/A3:27:54
249105PhilHarrisM45Valley Hill3:28:01
250227RyanHaighMU/A3:29:29
251229RebeccaGloverF40U/A3:31:12
25232KarenHarperF45Goole3:32:38
25334MichaelaShepherdF35Goole3:33:55
2549JoanneMounceyF35Goole3:36:45
255103AmandaPearsonF40Spenborough3:37:07
25629JuliePearceF35Spenborough3:37:07
257121GlynMitchellMU/A3:37:37
258344DaveJonesM45Valley Striders3:38:03
259347AlisonHonourF40Stadium3:39:56
260203StellaDarbyFU/A3:44:42
26199JanetOughtonF50Abbey3:45:22
26235FrankHoldenM65Knavesmire3:53:27
26350AndyYoungM60Knavesmire3:59:38
26467AnastasiaLincolnF55Idle4:04:49
265183MarkCrawshawMIdle4:05:19
Back to year index - Top of page